Terminal Aerodrome Forecast
Issued by NWS Shreveport, LA

Home | Current Version | Previous Version | Text Only | Print | Product List | Glossary On
Versions: 1 2 3 4 5 6 7 8 9 10 11 12 13 14 15 16 17 18
000
FTUS44 KSHV 232300
TAFMLU
TAF
KMLU 232335Z 2400/2424 34005KT P6SM SCT050 SCT070
      TEMPO 2402/2403 02020G45KT 3SM -TSRA SCT040CB BKN250
     FM240400 36007KT P6SM FEW050 SCT250
     FM240800 20002KT 4SM BR SKC
     FM241500 25004KT P6SM SCT030=

USA.gov is the U.S. government's official web portal to all federal, state and local government web resources and services.